Location: downtown San Diego
(32.7310°N, 117.1990°W)
Time: 13:57:09
(UTC-08:00)

ATLAS CENTAUR R/B - Pass Details

Date: 12 July 2018
Orbit: 451 x 700 km, 64.7° (Epoch: 03 December)

Event Time Altitude Azimuth Distance (km) Brightness Sun altitude
Rises 08:13:50 0° 316° (NW) 2,997 4.8 27.8°
Reaches altitude 10° 08:16:27 10° 303° (WNW) 2,111 4.0 28.4°
Maximum altitude 08:20:22 25° 249° (WSW) 1,385 3.1 29.2°
Drops below altitude 10° 08:24:21 10° 195° (SSW) 2,151 4.2 30.0°
Enters shadow 09:12:07 -79° 50° (NE) 12,966 7.9 40.0°
Exits shadow 09:23:26 -61° 1° (N) 11,755 7.7 42.4°
